Tracking 19562 objects as of 25-Mar-2019
HD Live streaming from Space Station
objects crossing your sky now

TURKSAT 2A

Track TURKSAT 2A now!
TURKSAT 2A is classified as:


NORAD ID: 26666
Int'l Code: 2001-002A
Perigee: 36,320.4 km
Apogee: 36,443.1 km
Inclination: 2.6 °
Period: 1,466.2 minutes
Semi major axis: 42752 km
RCS: 3.9 m2 (large)
Launch date: January 10, 2001
Source: Turkey (TURK)
Launch site: FRENCH GUIANA (FRGUI)

32 Ku-band transponders; direct-to-home voice, video, and data transmissions to countries between central Europe and the Indian subcontinent.
aabbcc
Your satellite tracking list
Your tracking list is empty




NASA's NSSDC Master Catalog

Two Line Element Set (TLE):
1 26666U 01002A   19084.13322831 -.00000224  00000-0  00000+0 0  9992
2 26666   2.5703  83.7109 0014354 255.5471  55.9749  0.98210196 66499
Source of the keplerian elements: AFSPC